Weather History for Lake Charles Regional, LA

Change the Weather History Date:

Thursday, July 4, 2013

  Actual Average Record
Temperature  
Mean Temperature 82 °F 82 °F  
Max Temperature 94 °F 91 °F 100 °F (1909)
Min Temperature 69 °F 75 °F 63 °F (1924)
Degree Days  
Heating Degree Days 0 0  
Month to date heating degree days 0 0  
Since 1 June heating degree days 0 0  
Since 1 July heating degree days 0 0  
Cooling Degree Days 17 18  
Month to date cooling degree days 62 69  
Year to date cooling degree days 1092 1087  
Since 1 June cooling degree days 607 549  
Growing Degree Days 31 (Base 50)    
Moisture  
Dew Point 65 °F    
Average Humidity 63    
Maximum Humidity 90    
Minimum Humidity 36    
Precipitation  
Precipitation 0.00 in 0.21 in 2.54 in (1946)
Month to date precipitation 0.00 0.84  
Year to date precipitation 33.58 28.57  
Snow  
Snow 0.00 in 0.00 in 0.00 in ()
Month to date snowfall 0.0 0.0  
Since 1 June snowfall 0.0 0.0  
Since 1 July snowfall 0.0 0.0  
Snow Depth 0.00 in    
Sea Level Pressure  
Sea Level Pressure 29.98 in    
Wind  
Wind Speed 5 mph (NE)    
Max Wind Speed 17 mph    
Max Gust Speed 23 mph    
Visibility 9 miles    
Events      
T = Trace of Precipitation, MM = Missing Value Source: NWS Daily Summary

Daily Weather History Graph

Daily Weather History Graph

Search for Another Location

Airport:

Trip Planner

Search our weather history database for the weather conditions in past years. The results will help you decide how hot, cold, wet, or windy it might be!

Date:

Astronomy

Jul. 04, 2013 Rise Set
Actual Time 6:16 AM CDT 8:18 PM CDT
Civil Twilight 5:49 AM CDT 8:45 PM CDT
Nautical Twilight 5:15 AM CDT 9:18 PM CDT
Astronomical Twilight 4:40 AM CDT 9:53 PM CDT
Moon 3:28 AM CDT (7/4) 5:27 PM CDT (7/4)
Length of Visible Light 14h 56m
Length of Day
14h 01m
Waning Crescent, 11% of the Moon is Illuminated
Jul 4
Waning Crescent
Jul 8
New
Jul 15
First Quarter
Jul 22
Full
Jul 29
Last Quarter

Hourly Weather History & Observations

Time (CDT) Temp. Heat Index Dew Point Humidity Pressure Visibility Wind Dir Wind Speed Gust Speed Precip Events Conditions
12:53 AM 73.9 °F - 66.0 °F 76% 29.99 in 10.0 mi NE 3.5 mph - N/A   Clear
1:53 AM 73.0 °F - 66.0 °F 79% 29.98 in 10.0 mi ENE 3.5 mph - N/A   Clear
2:53 AM 73.0 °F - 66.9 °F 81% 29.97 in 10.0 mi Calm Calm - N/A   Clear
3:53 AM 71.1 °F - 68.0 °F 90% 29.98 in 9.0 mi Calm Calm - N/A   Clear
4:53 AM 70.0 °F - 66.9 °F 90% 29.98 in 7.0 mi Calm Calm - N/A   Clear
5:53 AM 71.1 °F - 66.9 °F 87% 29.99 in 9.0 mi NNE 3.5 mph - N/A   Clear
6:53 AM 71.1 °F - 68.0 °F 90% 29.99 in 6.0 mi Calm Calm - N/A   Clear
7:53 AM 75.9 °F - 68.0 °F 76% 30.00 in 7.0 mi NNE 4.6 mph - N/A   Clear
8:53 AM 79.0 °F - 68.0 °F 69% 30.01 in 9.0 mi ENE 9.2 mph - N/A   Clear
9:53 AM 82.9 °F 85.8 °F 68.0 °F 60% 30.01 in 10.0 mi NNE 5.8 mph - N/A   Clear
10:53 AM 86.0 °F 88.8 °F 66.9 °F 53% 30.00 in 10.0 mi NNE 6.9 mph - N/A   Clear
11:53 AM 89.1 °F 92.1 °F 66.9 °F 48% 30.00 in 10.0 mi North 6.9 mph - N/A   Clear
12:53 PM 90.0 °F 92.4 °F 66.0 °F 45% 29.99 in 10.0 mi ENE 8.1 mph 16.1 mph N/A   Partly Cloudy
1:53 PM 91.9 °F 92.9 °F 63.0 °F 38% 29.98 in 10.0 mi Variable 3.5 mph - N/A   Partly Cloudy
2:53 PM 91.9 °F 92.5 °F 62.1 °F 37% 29.96 in 10.0 mi ENE 8.1 mph 16.1 mph N/A   Partly Cloudy
3:53 PM 93.0 °F 93.8 °F 62.1 °F 36% 29.95 in 10.0 mi NE 11.5 mph 19.6 mph N/A   Partly Cloudy
4:53 PM 91.9 °F 92.5 °F 62.1 °F 37% 29.94 in 10.0 mi ENE 11.5 mph 17.3 mph N/A   Scattered Clouds
5:53 PM 91.9 °F 91.5 °F 60.1 °F 34% 29.93 in 10.0 mi NE 8.1 mph - N/A   Clear
6:53 PM 90.0 °F 89.7 °F 60.1 °F 37% 29.94 in 10.0 mi NE 9.2 mph - N/A   Clear
7:53 PM 84.9 °F 85.9 °F 63.0 °F 48% 29.94 in 10.0 mi East 4.6 mph - N/A   Clear
8:53 PM 81.0 °F 82.7 °F 64.9 °F 58% 29.95 in 10.0 mi NE 3.5 mph - N/A   Clear
9:53 PM 78.1 °F - 66.0 °F 66% 29.97 in 8.0 mi NE 3.5 mph - N/A   Clear
10:53 PM 78.1 °F - 66.0 °F 66% 29.98 in 8.0 mi ENE 4.6 mph - N/A   Clear
11:53 PM 75.0 °F - 66.9 °F 76% 29.99 in 9.0 mi ESE 4.6 mph - N/A   Clear